カタログに戻る

SL-8 R/B

運用中VLEO
NORAD 3230·ROCKET BODY·🇷🇺 Russia

打ち上げ May 7, 1968 から Plesetsk Cosmodrome

Loading…

次のパス (今後24時間)

TLE

最新Source: Space-Track

元期: Sep 14, 2026, 12:22 UTC

1  3230U 68040B   26257.51546610  .00001786  00000-0  13096-3 0  9990
2  3230  74.0282 287.5442 0022915  53.8566 306.4739 15.04200508118396

AllMySatでSL-8 R/Bをリアルタイム追跡

Download on the App Store